When you browse on this site, cookies collect data to enhance your experience and personalize the content and advertising you see.
Visit our Privacy Policy to learn more. By continuing to use the site, you agree to this use of cookies and data.
  • In Austria
  • List of Countries
  • For 7 days
  • Water Temperature
  • Satellite Maps
  • Weather Map
  • News
  • Weather Widgets
  • user-avatar
    Login

    Hourly Weather Quito

    Today, 25 June, Tuesday

    Time Temperature Precipitation Wind Pressure Humidity
    00:00 +12°C° 0 mm 0 mps 622 mmHg 42%
    01:00 +12°C° 0 mm 0 mps 622 mmHg 43%
    02:00 +11°C° 0 mm 0 mps 621 mmHg 45%
    03:00 +10°C° 0 mm 0 mps 621 mmHg 48%
    04:00 +9°C° 0 mm 0 mps 621 mmHg 50%
    05:00 +10°C° 0 mm 0 mps 621 mmHg 49%
    06:00 +10°C° 0 mm 0 mps 622 mmHg 49%
    07:00 +11°C° 0 mm 0 mps 623 mmHg 48%
    08:00 +15°C° 0 mm 1 mps 624 mmHg 41%
    09:00 +19°C° 0 mm 2 mps 625 mmHg 35%
    10:00 +22°C° 0 mm 3 mps 626 mmHg 28%
    11:00 +25°C° 0 mm 2 mps 625 mmHg 25%
    12:00 +26°C° 0 mm 2 mps 625 mmHg 23%
    13:00 +27°C° 0 mm 2 mps 625 mmHg 21%
    14:00 +26°C° 0 mm 2 mps 624 mmHg 21%
    15:00 +26°C° 0 mm 2 mps 623 mmHg 21%
    16:00 +26°C° 0 mm 2 mps 623 mmHg 21%
    17:00 +23°C° 0 mm 2 mps 622 mmHg 27%
    18:00 +20°C° 0 mm 1 mps 622 mmHg 32%
    19:00 +16°C° 0 mm 1 mps 621 mmHg 37%
    20:00 +15°C° 0 mm 1 mps 622 mmHg 38%
    21:00 +15°C° 0 mm 1 mps 622 mmHg 38%
    22:00 +14°C° 0 mm 1 mps 622 mmHg 39%
    23:00 +14°C° 0 mm 1 mps 622 mmHg 39%

    Tomorrow, 26 June, Wednesday

    Time Temperature Precipitation Wind Pressure Humidity
    00:00 +14°C° 0 mm 1 mps 622 mmHg 40%
    01:00 +13°C° 0 mm 1 mps 622 mmHg 40%
    02:00 +13°C° 0 mm 1 mps 621 mmHg 43%
    03:00 +11°C° 0 mm 0 mps 621 mmHg 45%
    04:00 +10°C° 0 mm 0 mps 621 mmHg 47%
    05:00 +11°C° 0 mm 0 mps 622 mmHg 47%
    06:00 +12°C° 0 mm 1 mps 622 mmHg 48%
    07:00 +12°C° 0 mm 1 mps 623 mmHg 48%
    08:00 +16°C° 0 mm 1 mps 624 mmHg 41%
    09:00 +19°C° 0 mm 2 mps 625 mmHg 34%
    10:00 +24°C° 0 mm 2 mps 626 mmHg 26%
    11:00 +25°C° 0 mm 2 mps 626 mmHg 24%
    12:00 +26°C° 0 mm 2 mps 625 mmHg 22%
    13:00 +27°C° 0 mm 2 mps 625 mmHg 21%
    14:00 +27°C° 0 mm 2 mps 624 mmHg 21%
    15:00 +27°C° 0 mm 2 mps 624 mmHg 21%
    16:00 +26°C° 0 mm 2 mps 623 mmHg 21%
    17:00 +23°C° 0 mm 2 mps 623 mmHg 27%
    18:00 +20°C° 0 mm 1 mps 622 mmHg 33%
    19:00 +16°C° 0 mm 1 mps 622 mmHg 38%
    20:00 +16°C° 0 mm 1 mps 622 mmHg 38%
    21:00 +15°C° 0 mm 1 mps 622 mmHg 39%
    22:00 +15°C° 0 mm 1 mps 623 mmHg 39%
    23:00 +15°C° 0 mm 1 mps 623 mmHg 39%

    Day after tomorrow, 27 June, Thursday

    Time Temperature Precipitation Wind Pressure Humidity
    00:00 +14°C° 0 mm 1 mps 622 mmHg 40%
    01:00 +14°C° 0 mm 1 mps 622 mmHg 40%
    02:00 +12°C° 0 mm 0 mps 622 mmHg 43%
    03:00 +11°C° 0 mm 0 mps 622 mmHg 46%
    04:00 +10°C° 0 mm 0 mps 621 mmHg 49%
    05:00 +11°C° 0 mm 0 mps 622 mmHg 48%
    06:00 +11°C° 0 mm 0 mps 623 mmHg 47%
    07:00 +12°C° 0 mm 0 mps 623 mmHg 46%
    08:00 +18°C° 0 mm 1 mps 624 mmHg 39%
    09:00 +21°C° 0 mm 1 mps 625 mmHg 31%
    10:00 +25°C° 0 mm 2 mps 626 mmHg 24%
    11:00 +26°C° 0 mm 2 mps 626 mmHg 22%
    12:00 +27°C° 0 mm 2 mps 626 mmHg 20%
    13:00 +28°C° 0 mm 2 mps 625 mmHg 18%
    14:00 +28°C° 0 mm 3 mps 625 mmHg 19%
    15:00 +27°C° 0 mm 3 mps 624 mmHg 19%
    16:00 +27°C° 0 mm 3 mps 624 mmHg 20%
    17:00 +24°C° 0 mm 2 mps 623 mmHg 25%
    18:00 +20°C° 0 mm 2 mps 622 mmHg 30%
    19:00 +18°C° 0 mm 1 mps 622 mmHg 35%
    20:00 +16°C° 0 mm 1 mps 622 mmHg 35%
    21:00 +16°C° 0 mm 1 mps 622 mmHg 35%
    22:00 +14°C° 0 mm 0 mps 623 mmHg 35%
    23:00 +15°C° 0 mm 1 mps 622 mmHg 36%

    28 June, Friday

    Time Temperature Precipitation Wind Pressure Humidity
    00:00 +14°C° 0 mm 1 mps 622 mmHg 37%
    01:00 +14°C° 0 mm 1 mps 622 mmHg 38%
    02:00 +13°C° 0 mm 1 mps 622 mmHg 41%
    03:00 +12°C° 0 mm 1 mps 622 mmHg 44%
    04:00 +12°C° 0 mm 1 mps 621 mmHg 48%
    05:00 +12°C° 0 mm 1 mps 622 mmHg 47%
    06:00 +13°C° 0 mm 1 mps 623 mmHg 47%
    07:00 +14°C° 0 mm 1 mps 624 mmHg 46%
    08:00 +17°C° 0 mm 2 mps 625 mmHg 39%
    09:00 +20°C° 0 mm 3 mps 625 mmHg 33%
    10:00 +25°C° 0 mm 4 mps 626 mmHg 26%
    11:00 +26°C° 0 mm 3 mps 626 mmHg 24%
    12:00 +27°C° 0 mm 3 mps 626 mmHg 21%
    13:00 +28°C° 0 mm 3 mps 625 mmHg 19%
    14:00 +28°C° 0 mm 2 mps 625 mmHg 19%
    15:00 +28°C° 0 mm 2 mps 624 mmHg 19%
    16:00 +27°C° 0 mm 2 mps 624 mmHg 19%
    17:00 +24°C° 0 mm 2 mps 623 mmHg 23%
    18:00 +22°C° 0 mm 1 mps 623 mmHg 27%
    19:00 +19°C° 0 mm 1 mps 623 mmHg 32%
    20:00 +18°C° 0 mm 1 mps 623 mmHg 32%
    21:00 +18°C° 0 mm 1 mps 623 mmHg 33%
    22:00 +18°C° 0 mm 1 mps 624 mmHg 33%
    23:00 +16°C° 0 mm 1 mps 623 mmHg 36%

    29 June, Saturday

    Time Temperature Precipitation Wind Pressure Humidity
    00:00 +15°C° 0 mm 1 mps 623 mmHg 39%
    01:00 +14°C° 0 mm 1 mps 623 mmHg 42%
    02:00 +14°C° 0 mm 1 mps 623 mmHg 44%
    03:00 +13°C° 0 mm 1 mps 622 mmHg 46%
    04:00 +12°C° 0 mm 1 mps 622 mmHg 48%
    05:00 +13°C° 0 mm 1 mps 623 mmHg 49%
    06:00 +13°C° 0 mm 1 mps 623 mmHg 50%
    07:00 +13°C° 0 mm 1 mps 624 mmHg 51%
    08:00 +16°C° 0 mm 2 mps 625 mmHg 43%
    09:00 +20°C° 0 mm 3 mps 626 mmHg 35%
    10:00 +23°C° 0 mm 4 mps 627 mmHg 27%
    11:00 +25°C° 0 mm 4 mps 626 mmHg 24%
    12:00 +27°C° 0 mm 3 mps 626 mmHg 22%
    13:00 +28°C° 0 mm 3 mps 626 mmHg 20%
    14:00 +28°C° 0 mm 3 mps 625 mmHg 20%
    15:00 +27°C° 0 mm 2 mps 625 mmHg 19%
    16:00 +27°C° 0 mm 2 mps 624 mmHg 19%
    17:00 +24°C° 0 mm 2 mps 624 mmHg 24%
    18:00 +21°C° 0 mm 1 mps 623 mmHg 29%
    19:00 +18°C° 0 mm 1 mps 623 mmHg 34%
    20:00 +16°C° 0 mm 1 mps 623 mmHg 36%
    21:00 +15°C° 0 mm 1 mps 623 mmHg 37%
    22:00 +15°C° 0 mm 1 mps 623 mmHg 39%
    23:00 +14°C° 0 mm 1 mps 623 mmHg 40%

    30 June, Sunday

    Time Temperature Precipitation Wind Pressure Humidity
    00:00 +14°C° 0 mm 1 mps 623 mmHg 42%
    01:00 +13°C° 0 mm 1 mps 623 mmHg 43%
    02:00 +12°C° 0 mm 1 mps 623 mmHg 45%
    03:00 +12°C° 0 mm 1 mps 623 mmHg 46%
    04:00 +11°C° 0 mm 1 mps 622 mmHg 48%
    05:00 +12°C° 0 mm 1 mps 623 mmHg 48%
    06:00 +12°C° 0 mm 1 mps 624 mmHg 48%
    07:00 +12°C° 0 mm 1 mps 624 mmHg 48%
    08:00 +16°C° 0 mm 2 mps 625 mmHg 40%
    09:00 +19°C° 0 mm 3 mps 626 mmHg 33%
    10:00 +24°C° 0 mm 3 mps 627 mmHg 25%
    11:00 +25°C° 0 mm 3 mps 627 mmHg 23%
    12:00 +26°C° 0 mm 3 mps 627 mmHg 21%
    13:00 +28°C° 0 mm 2 mps 626 mmHg 18%
    14:00 +28°C° 0 mm 2 mps 626 mmHg 18%
    15:00 +27°C° 0 mm 2 mps 625 mmHg 18%
    16:00 +27°C° 0 mm 2 mps 625 mmHg 18%
    17:00 +24°C° 0 mm 2 mps 625 mmHg 22%
    18:00 +20°C° 0 mm 2 mps 624 mmHg 26%
    19:00 +18°C° 0 mm 1 mps 624 mmHg 30%
    20:00 +18°C° 0 mm 1 mps 624 mmHg 30%
    21:00 +16°C° 0 mm 1 mps 624 mmHg 30%
    22:00 +15°C° 0 mm 1 mps 624 mmHg 30%
    23:00 +14°C° 0 mm 1 mps 624 mmHg 31%
    Show more